Pocatello, ID

11:55 PM MDT on April 20, 2018 (GMT -0600)
Pocatello Regional

Weather History for KPIH - December, 2013

Change the Weather History Date:

Friday, December 13, 2013

  Actual Average Record
Temperature  
Mean Temperature 13 °F 24 °F  
Max Temperature 25 °F 33 °F 53 °F (1969)
Min Temperature 1 °F 16 °F -12 °F (1967)
Degree Days  
Heating Degree Days 52 41  
Month to date heating degree days 669 512  
Since 1 July heating degree days 2281 2240  
Cooling Degree Days 0 0  
Month to date cooling degree days 0 0  
Year to date cooling degree days 688 392  
Moisture  
Dew Point 13 °F    
Average Humidity 85    
Maximum Humidity 92    
Minimum Humidity 77    
Precipitation  
Precipitation 0.00 in 0.04 in 0.35 in (1990)
Month to date precipitation 0.33 0.54  
Year to date precipitation 6.07 11.43  
Snow  
Snow 0.00 in - - ()
Month to date snowfall 6.7  
Since 1 July snowfall 8.2  
Snow Depth 3.00 in    
Sea Level Pressure  
Sea Level Pressure 30.43 in    
Wind  
Wind Speed 5 mph (WSW)    
Max Wind Speed 18 mph    
Max Gust Speed 22 mph    
Visibility 8 miles    
Events      
T = Trace of Precipitation, MM = Missing Value Source: NWS Daily Summary

Daily Weather History Graph

Daily Weather History Graph

Search for Another Location

Airport or City:

Astronomy

Dec. 13, 2013 Rise Set
Actual Time 7:53 AM MST 4:56 PM MST
Civil Twilight 7:20 AM MST 5:28 PM MST
Nautical Twilight 6:45 AM MST 6:04 PM MST
Astronomical Twilight 6:10 AM MST 6:38 PM MST
Moon 2:45 PM MST (12/13) 4:15 AM MST (12/13)
Length of Visible Light 10h 07m
Length of Day
9h 03m
Waxing Gibbous, 88% of the Moon is Illuminated
Dec 13
Waxing Gibbous
Dec 17
Full
Dec 25
Last Quarter
Jan 1
New
Jan 7
First Quarter

Hourly Weather History & Observations

Time (MST) Temp. Windchill Dew Point Humidity Pressure Visibility Wind Dir Wind Speed Gust Speed Precip Events Conditions
12:48 AM 3.2 °F - -0.4 °F 85% 30.15 in 2.0 mi Calm Calm - N/A   Clear
12:53 AM 3.9 °F - 1.0 °F 88% 30.33 in 3.0 mi Calm Calm - N/A   Clear
1:53 AM 3.9 °F -3.4 °F -0.0 °F 84% 30.32 in 9.0 mi SSE 3.5 mph - N/A   Clear
2:53 AM 3.0 °F -6.4 °F -0.9 °F 84% 30.34 in 9.0 mi NE 4.6 mph - N/A   Clear
3:53 AM 3.9 °F - -0.0 °F 84% 30.32 in 9.0 mi Calm Calm - N/A   Clear
4:53 AM 3.0 °F -8.0 °F -0.9 °F 84% 30.34 in 9.0 mi WSW 5.8 mph - N/A   Clear
5:53 AM 8.1 °F 1.4 °F 3.9 °F 83% 30.35 in 10.0 mi West 3.5 mph - N/A   Mostly Cloudy
6:53 AM 8.1 °F 1.4 °F 5.0 °F 87% 30.39 in 10.0 mi North 3.5 mph - N/A   Overcast
7:53 AM 10.0 °F - 6.1 °F 84% 30.38 in 10.0 mi Calm Calm - N/A   Overcast
8:53 AM 12.0 °F - 8.1 °F 84% 30.41 in 10.0 mi Calm Calm - N/A   Scattered Clouds
9:53 AM 12.9 °F 6.9 °F 9.0 °F 84% 30.45 in 10.0 mi West 3.5 mph - N/A   Mostly Cloudy
10:53 AM 17.1 °F 7.6 °F 12.9 °F 84% 30.47 in 10.0 mi WSW 6.9 mph - N/A   Mostly Cloudy
11:53 AM 21.0 °F - 16.0 °F 81% 30.45 in 10.0 mi Calm Calm - N/A   Mostly Cloudy
12:08 PM 21.9 °F - 16.0 °F 78% 30.27 in 9.0 mi Calm Calm - N/A   Mostly Cloudy
12:53 PM 21.9 °F 13.4 °F 17.1 °F 82% 30.47 in 10.0 mi West 6.9 mph - N/A   Mostly Cloudy
1:53 PM 25.0 °F 12.2 °F 19.9 °F 81% 30.45 in 10.0 mi SW 16.1 mph - N/A   Overcast
2:08 PM 24.1 °F 12.0 °F 21.0 °F 88% 30.27 in 10.0 mi WSW 13.8 mph - N/A   Overcast
2:53 PM 24.1 °F 12.5 °F 19.9 °F 84% 30.46 in 7.0 mi West 12.7 mph - N/A   Overcast
3:53 PM 24.1 °F 10.6 °F 21.0 °F 88% 30.50 in 8.0 mi West 17.3 mph - N/A   Overcast
4:53 PM 23.0 °F 13.1 °F 19.9 °F 88% 30.53 in 5.0 mi West 9.2 mph - N/A   Overcast
5:53 PM 21.9 °F - 19.9 °F 92% 30.53 in 4.0 mi Calm Calm - N/A   Overcast
6:53 PM 24.1 °F - 19.9 °F 84% 30.54 in 6.0 mi Calm Calm - N/A   Overcast
7:53 PM 23.0 °F 18.4 °F 19.9 °F 88% 30.53 in 6.0 mi North 3.5 mph - N/A   Overcast
8:53 PM 24.1 °F 19.7 °F 21.0 °F 88% 30.54 in 6.0 mi South 3.5 mph - N/A   Overcast
9:53 PM 25.0 °F 20.7 °F 21.0 °F 85% 30.56 in 10.0 mi WSW 3.5 mph - N/A   Overcast
10:53 PM 24.1 °F 19.7 °F 19.9 °F 84% 30.57 in 10.0 mi SW 3.5 mph - N/A   Overcast
11:28 PM 24.1 °F 19.7 °F 19.9 °F 84% 30.43 in 10.0 mi SW 3.5 mph - N/A   Overcast
11:53 PM 24.1 °F - 19.9 °F 84% 30.56 in 10.0 mi Calm Calm - N/A   Overcast